Flag for Germany Weather past 2 weeks in Königswinter, North Rhine-Westphalia, Germany

Now
88 °F

Sunny.


Feels Like: 92 °F
Forecast: 70 / 90 °F
Wind: 6 mph from West

Location: Bonn-Hangelar

Current Time: Jul 4, 2015 at 1:14:05 PM

Latest Report: Jul 4, 2015 at 12:00 PM


Visibility: 11 mi

Pressure: 30.05 "Hg

Humidity: 53%

Dew point: 69 °F

Location of KönigswinterLocation

Historic Weather in Königswinter — Graph

°F

Königswinter temperature yesterday

Maximum temperature yesterday: 87 °F (at 5:00 PM)
Minimum temperature yesterday: 65 °F (at 5:00 AM)
Average temperature yesterday: 76 °F

Past Weeks' High & Low Weather Summary

 TemperatureHumidityPressure
High94 °F (Jul 2, 4:00 PM)100% (Jun 22, 11:00 PM)30.26 "Hg (Jun 22, 11:00 PM)
Low47 °F (Jun 23, 1:00 AM)32% (Jun 30, 7:00 PM)29.72 "Hg (Jun 22, 8:00 PM)
Average65 °F73%30.08 "Hg
* Reported Jun 19 12:00 Noon — Jul 4 12:00 Noon, Königswinter, Weather by CustomWeather, © 2015

Note: Actual official high and low records may vary slightly from our data, if they occured in-between our weather recording intervals... More about our weather records

Advertising

Königswinter weather history for previous 24 hours

 ConditionsComfort  
Time TempWeatherWind HumidityBarometerVisibility
12:00 PM
Sat, Jul 4
88 °FSunny.6 mph53%30.05 "Hg11 mi
11:00 AM86 °FPassing clouds.6 mph55%30.05 "Hg16 mi
10:00 AM84 °FScattered clouds.6 mph60%30.04 "Hg14 mi
9:00 AM81 °FPartly sunny.5 mph65%30.03 "Hg13 mi
8:00 AM80 °FOvercast.1 mph71%30.03 "Hg9 mi
7:00 AM74 °FOvercast.3 mph80%30.03 "Hg7 mi
5:00 AM71 °FFog.3 mph88%30.06 "Hg4 mi
4:00 AM72 °FFog.5 mph88%30.07 "Hg4 mi
3:00 AM72 °FFog.6 mph88%30.09 "Hg4 mi
2:00 AM73 °FFog.6 mph86%30.11 "Hg4 mi
1:00 AM75 °FPassing clouds.6 mph82%30.12 "Hg5 mi
11:00 PM
Fri, Jul 3
76 °FClear.5 mph78%30.14 "Hg7 mi
10:00 PM80 °FPassing clouds.5 mph68%30.14 "Hg9 mi
9:00 PM82 °FScattered clouds.3 mph63%30.14 "Hg7 mi
8:00 PM85 °FSunny.3 mph53%30.14 "Hg11 mi
7:00 PM87 °FSunny.3 mph49%30.14 "Hg11 mi
6:00 PM87 °FSunny.2 mph49%30.15 "Hg13 mi
5:00 PM87 °FSunny.3 mph53%30.16 "Hg12 mi
4:00 PM86 °FPassing clouds.3 mph54%30.18 "Hg10 mi
3:00 PM83 °FPartly sunny.3 mph57%30.19 "Hg11 mi
2:00 PM84 °FPassing clouds.3 mph59%30.21 "Hg9 mi
1:00 PM82 °FSunny.3 mph63%30.22 "Hg12 mi
Weather by CustomWeather, © 2015

See weather overviewHow to use our weather pages